When you browse on this site, cookies collect data to enhance your experience and personalize the content and advertising you see.
Visit our Privacy Policy to learn more. By continuing to use the site, you agree to this use of cookies and data.
  • în România
  • Lista ţărilor
  • Pe 7 zile
  • Temperatura apei
  • Meteo pe hartă
  • Widget-uri
  • user-avatar
    Intrare

    Meteo pe oră la Pernik

    Astăzi, 18 Septembrie, Miercuri

    Timp Temperatura Precipitaţii Vânt Presiune Umiditate
    00:00 +16°C° 0 mm 1 m/s 690 mmHg 39%
    01:00 +16°C° 0 mm 1 m/s 690 mmHg 40%
    02:00 +15°C° 0 mm 1 m/s 689 mmHg 41%
    03:00 +15°C° 0 mm 1 m/s 689 mmHg 41%
    04:00 +15°C° 0 mm 1 m/s 689 mmHg 42%
    05:00 +14°C° 0 mm 1 m/s 689 mmHg 43%
    06:00 +16°C° 0 mm 1 m/s 689 mmHg 41%
    07:00 +19°C° 0 mm 1 m/s 690 mmHg 39%
    08:00 +20°C° 0 mm 1 m/s 691 mmHg 36%
    09:00 +21°C° 0 mm 2 m/s 692 mmHg 36%
    10:00 +24°C° 0 mm 3 m/s 693 mmHg 36%
    11:00 +25°C° 0 mm 4 m/s 693 mmHg 35%
    12:00 +25°C° 0 mm 5 m/s 693 mmHg 37%
    13:00 +25°C° 0 mm 5 m/s 693 mmHg 39%
    14:00 +24°C° 0 mm 6 m/s 693 mmHg 42%
    15:00 +23°C° 0 mm 5 m/s 693 mmHg 42%
    16:00 +22°C° 0 mm 5 m/s 693 mmHg 42%
    17:00 +21°C° 0 mm 4 m/s 693 mmHg 42%
    18:00 +19°C° 0 mm 3 m/s 693 mmHg 45%
    19:00 +17°C° 0 mm 3 m/s 693 mmHg 49%
    20:00 +15°C° 0 mm 2 m/s 693 mmHg 53%
    21:00 +14°C° 0 mm 2 m/s 693 mmHg 54%
    22:00 +13°C° 0 mm 2 m/s 693 mmHg 55%
    23:00 +12°C° 0 mm 1 m/s 693 mmHg 56%

    Mâine, 19 Septembrie, Joi

    Timp Temperatura Precipitaţii Vânt Presiune Umiditate
    00:00 +12°C° 0 mm 1 m/s 693 mmHg 55%
    01:00 +12°C° 0 mm 1 m/s 694 mmHg 53%
    02:00 +11°C° 0 mm 1 m/s 694 mmHg 52%
    03:00 +11°C° 0 mm 1 m/s 694 mmHg 53%
    04:00 +11°C° 0 mm 1 m/s 693 mmHg 54%
    05:00 +10°C° 0 mm 1 m/s 693 mmHg 55%
    06:00 +11°C° 0 mm 1 m/s 694 mmHg 56%
    07:00 +12°C° 0 mm 1 m/s 694 mmHg 56%
    08:00 +13°C° 0 mm 1 m/s 694 mmHg 56%
    09:00 +14°C° 0 mm 1 m/s 695 mmHg 54%
    10:00 +16°C° 0 mm 1 m/s 695 mmHg 52%
    11:00 +17°C° 0 mm 2 m/s 695 mmHg 49%
    12:00 +18°C° 0 mm 2 m/s 695 mmHg 46%
    13:00 +19°C° 0 mm 2 m/s 695 mmHg 43%
    14:00 +21°C° 0 mm 2 m/s 695 mmHg 40%
    15:00 +19°C° 0 mm 3 m/s 695 mmHg 45%
    16:00 +17°C° 0 mm 3 m/s 694 mmHg 50%
    17:00 +14°C° 0 mm 4 m/s 694 mmHg 55%
    18:00 +12°C° 0.2 mm 3 m/s 694 mmHg 64%
    19:00 +12°C° 0.2 mm 2 m/s 694 mmHg 73%
    20:00 +11°C° 0.2 mm 1 m/s 694 mmHg 82%
    21:00 +10°C° 0 mm 1 m/s 694 mmHg 84%
    22:00 +9°C° 0 mm 1 m/s 694 mmHg 85%
    23:00 +9°C° 0 mm 1 m/s 694 mmHg 87%

    Poimâine, 20 Septembrie, Vineri

    Timp Temperatura Precipitaţii Vânt Presiune Umiditate
    00:00 +8°C° 0 mm 1 m/s 694 mmHg 85%
    01:00 +8°C° 0 mm 1 m/s 694 mmHg 84%
    02:00 +7°C° 0 mm 1 m/s 694 mmHg 82%
    03:00 +6°C° 0 mm 1 m/s 694 mmHg 82%
    04:00 +6°C° 0 mm 1 m/s 694 mmHg 81%
    05:00 +6°C° 0 mm 1 m/s 694 mmHg 80%
    06:00 +7°C° 0 mm 1 m/s 694 mmHg 74%
    07:00 +8°C° 0 mm 1 m/s 694 mmHg 68%
    08:00 +9°C° 0 mm 1 m/s 695 mmHg 62%
    09:00 +10°C° 0 mm 2 m/s 695 mmHg 50%
    10:00 +13°C° 0 mm 3 m/s 695 mmHg 39%
    11:00 +16°C° 0 mm 3 m/s 696 mmHg 27%
    12:00 +17°C° 0 mm 4 m/s 696 mmHg 24%
    13:00 +18°C° 0 mm 4 m/s 695 mmHg 21%
    14:00 +19°C° 0 mm 4 m/s 695 mmHg 18%
    15:00 +18°C° 0 mm 4 m/s 695 mmHg 19%
    16:00 +18°C° 0 mm 4 m/s 695 mmHg 20%
    17:00 +17°C° 0 mm 4 m/s 695 mmHg 21%
    18:00 +14°C° 0 mm 3 m/s 695 mmHg 27%
    19:00 +12°C° 0 mm 2 m/s 695 mmHg 34%
    20:00 +9°C° 0 mm 1 m/s 695 mmHg 40%
    21:00 +9°C° 0 mm 1 m/s 695 mmHg 42%
    22:00 +8°C° 0 mm 1 m/s 695 mmHg 44%
    23:00 +7°C° 0 mm 1 m/s 695 mmHg 46%

    21 Septembrie, Sâmbătă

    Timp Temperatura Precipitaţii Vânt Presiune Umiditate
    00:00 +7°C° 0 mm 1 m/s 695 mmHg 48%
    01:00 +7°C° 0 mm 1 m/s 695 mmHg 49%
    02:00 +6°C° 0 mm 1 m/s 696 mmHg 51%
    03:00 +6°C° 0 mm 1 m/s 696 mmHg 52%
    04:00 +6°C° 0 mm 1 m/s 696 mmHg 54%
    05:00 +5°C° 0 mm 1 m/s 696 mmHg 55%
    06:00 +7°C° 0 mm 1 m/s 696 mmHg 51%
    07:00 +8°C° 0 mm 1 m/s 697 mmHg 47%
    08:00 +10°C° 0 mm 1 m/s 697 mmHg 42%
    09:00 +12°C° 0 mm 1 m/s 698 mmHg 37%
    10:00 +15°C° 0 mm 1 m/s 698 mmHg 31%
    11:00 +18°C° 0 mm 1 m/s 699 mmHg 25%
    12:00 +19°C° 0 mm 1 m/s 698 mmHg 24%
    13:00 +20°C° 0 mm 1 m/s 698 mmHg 22%
    14:00 +21°C° 0 mm 1 m/s 698 mmHg 20%
    15:00 +20°C° 0 mm 2 m/s 698 mmHg 20%
    16:00 +20°C° 0 mm 2 m/s 698 mmHg 21%
    17:00 +19°C° 0 mm 2 m/s 697 mmHg 22%
    18:00 +16°C° 0 mm 2 m/s 697 mmHg 28%
    19:00 +14°C° 0 mm 2 m/s 697 mmHg 34%
    20:00 +10°C° 0 mm 2 m/s 697 mmHg 41%
    21:00 +10°C° 0 mm 1 m/s 697 mmHg 42%
    22:00 +9°C° 0 mm 1 m/s 697 mmHg 44%
    23:00 +9°C° 0 mm 1 m/s 697 mmHg 45%

    22 Septembrie, Duminică

    Timp Temperatura Precipitaţii Vânt Presiune Umiditate
    00:00 +8°C° 0 mm 1 m/s 697 mmHg 48%
    01:00 +7°C° 0 mm 1 m/s 697 mmHg 51%
    02:00 +7°C° 0 mm 1 m/s 697 mmHg 54%
    03:00 +6°C° 0 mm 1 m/s 697 mmHg 58%
    04:00 +6°C° 0 mm 1 m/s 697 mmHg 61%
    05:00 +5°C° 0 mm 1 m/s 697 mmHg 65%
    06:00 +7°C° 0 mm 1 m/s 697 mmHg 60%
    07:00 +8°C° 0 mm 1 m/s 697 mmHg 55%
    08:00 +10°C° 0 mm 1 m/s 698 mmHg 50%
    09:00 +13°C° 0 mm 1 m/s 698 mmHg 44%
    10:00 +15°C° 0 mm 1 m/s 699 mmHg 38%
    11:00 +19°C° 0 mm 1 m/s 699 mmHg 32%
    12:00 +20°C° 0 mm 1 m/s 699 mmHg 29%
    13:00 +22°C° 0 mm 1 m/s 698 mmHg 26%
    14:00 +23°C° 0 mm 1 m/s 698 mmHg 23%
    15:00 +23°C° 0 mm 2 m/s 697 mmHg 24%
    16:00 +21°C° 0 mm 2 m/s 697 mmHg 24%
    17:00 +21°C° 0 mm 2 m/s 696 mmHg 24%
    18:00 +18°C° 0 mm 2 m/s 696 mmHg 30%
    19:00 +15°C° 0 mm 1 m/s 695 mmHg 36%
    20:00 +12°C° 0 mm 1 m/s 695 mmHg 42%
    21:00 +12°C° 0 mm 1 m/s 695 mmHg 44%
    22:00 +11°C° 0 mm 1 m/s 694 mmHg 46%
    23:00 +10°C° 0 mm 1 m/s 694 mmHg 48%

    23 Septembrie, Luni

    Timp Temperatura Precipitaţii Vânt Presiune Umiditate
    00:00 +10°C° 0 mm 1 m/s 694 mmHg 51%
    01:00 +10°C° 0 mm 1 m/s 694 mmHg 53%
    02:00 +9°C° 0 mm 1 m/s 694 mmHg 56%
    03:00 +9°C° 0 mm 1 m/s 693 mmHg 60%
    04:00 +9°C° 0 mm 1 m/s 693 mmHg 63%
    05:00 +8°C° 0 mm 1 m/s 693 mmHg 67%
    06:00 +10°C° 0 mm 1 m/s 693 mmHg 63%
    07:00 +11°C° 0 mm 1 m/s 693 mmHg 58%
    08:00 +13°C° 0 mm 1 m/s 693 mmHg 54%
    09:00 +16°C° 0 mm 1 m/s 693 mmHg 46%
    10:00 +20°C° 0 mm 1 m/s 694 mmHg 39%
    11:00 +23°C° 0 mm 1 m/s 694 mmHg 31%
    12:00 +25°C° 0 mm 1 m/s 694 mmHg 29%
    13:00 +27°C° 0 mm 1 m/s 693 mmHg 27%
    14:00 +28°C° 0 mm 1 m/s 693 mmHg 25%
    15:00 +28°C° 0 mm 1 m/s 692 mmHg 26%
    16:00 +27°C° 0 mm 2 m/s 692 mmHg 27%
    17:00 +27°C° 0 mm 2 m/s 691 mmHg 28%
    18:00 +25°C° 0 mm 1 m/s 691 mmHg 33%
    19:00 +23°C° 0 mm 1 m/s 690 mmHg 38%
    20:00 +20°C° 0 mm 1 m/s 690 mmHg 43%
    21:00 +20°C° 0 mm 1 m/s 690 mmHg 44%
    22:00 +19°C° 0 mm 1 m/s 690 mmHg 46%
    23:00 +18°C° 0 mm 1 m/s 690 mmHg 48%
    Arată mai mult